[[{"header":{"parameterUnit":"m.s-1","parameterCategory":1,"la1":30.2991,"la2":30.254,"lo1":-89.0895,"lo2":-89.0444,"dy":0.0017,"dx":0.0017,"nx":28,"ny":28,"refTime":"2025-07-27T09:00:00:Z","depth":0,"parameterNumber":2,"parameterNumberName":"U-component_of_WINDS"},"data":[0,0,0,0,0,0,0,0,0,0,0,0,0,0,0,0,0,0,0,0,0,0,0,0,0,0,0,0,0,0,0,0,0,0,0,0,0,0,0,0,0,0,0,0,0,0,0,0,0,0,0,0,0,0,0,0,0,0,-0.9383,-0.9384,0,-0.9412,-0.9412,-0.9412,-0.9401,-0.9401,-0.94,-0.9399,-0.9429,-0.943,-0.9432,0,0,0,0,0,0,0,0,0,0,0,0,0,-0.9321,-0.9322,-0.9383,-0.9384,-0.9384,-0.9412,-0.9412,-0.9412,-0.9401,-0.9401,-0.94,-0.9399,-0.9428,-0.943,-0.9432,0,0,0,0,0,0,0,0,0,0,0,0,0,-0.9348,-0.9322,-0.9383,-0.9382,-0.9382,-0.9412,-0.9412,-0.9413,-0.9401,-0.94,-0.94,-0.9399,-0.9428,-0.943,-0.9432,-0.9465,0,0,-0.9438,-0.9439,0,0,0,0,0,0,0,0,-0.9347,-0.9351,-0.9382,-0.9382,-0.9382,-0.9402,-0.9401,-0.943,-0.9402,-0.9394,-0.9399,-0.9398,-0.9421,-0.9423,-0.9431,-0.9466,-0.9467,-0.9439,-0.944,-0.9441,-0.9441,0,0,0,0,0,0,0,-0.9345,-0.9349,-0.9395,-0.9382,-0.9383,-0.938,-0.9383,-0.9406,-0.9413,-0.9395,-0.9394,-0.9397,-0.9421,-0.9429,-0.9431,-0.9468,-0.9438,-0.944,-0.9442,-0.9442,-0.9532,-0.9533,0,0,0,0,0,0,-0.9343,-0.9348,-0.9394,-0.9395,-0.9362,-0.9382,-0.9385,-0.9397,-0.9412,-0.9414,-0.9398,-0.9397,-0.9426,-0.9429,-0.9432,-0.9472,-0.9441,-0.9443,-0.9444,-0.9531,-0.9532,-0.9533,0,0,0,0,0,0,-0.9342,-0.9347,-0.9393,-0.9372,-0.9377,-0.9384,-0.9397,-0.9398,-0.9406,-0.9415,-0.9416,-0.9405,-0.9425,-0.9429,-0.9457,-0.9473,-0.9444,-0.9446,-0.9529,-0.9531,-0.9533,-0.9552,0,0,0,0,0,0,-0.934,-0.9347,-0.9359,-0.9372,-0.9378,-0.9416,-0.9398,-0.9399,-0.9409,-0.9408,-0.9422,-0.9423,-0.9425,-0.9454,-0.9459,-0.9475,-0.9447,-0.9528,-0.953,-0.9532,-0.955,-0.9554,-0.9557,0,0,0,0,0,-0.9338,-0.9363,-0.936,-0.9365,-0.9394,-0.9417,-0.9421,-0.9422,-0.9411,-0.9423,-0.9429,-0.9423,-0.947,-0.9457,-0.9462,-0.948,-0.9527,-0.953,-0.9532,-0.9548,-0.9553,-0.9557,0,0,0,0,0,0,-0.9352,-0.9365,-0.9361,-0.9392,-0.9403,-0.9415,-0.9431,-0.9427,-0.9442,-0.944,-0.9441,-0.9444,-0.9472,-0.9479,-0.9463,-0.9512,-0.9497,-0.9501,-0.9507,-0.9512,-0.9516,-0.9514,-0.9449,0,0,0,0,0,-0.9359,-0.9377,-0.9387,-0.9413,-0.9419,-0.9424,-0.9435,-0.9434,-0.9446,-0.9451,-0.9459,-0.9472,-0.9489,-0.9501,-0.9518,-0.955,-0.9554,-0.9565,-0.9569,-0.9572,-0.9575,-0.9593,-0.9599,-0.9542,-0.9542,-0.9541,0,0,-0.9373,-0.9382,-0.9394,-0.9416,-0.9425,-0.9444,-0.9429,-0.9449,-0.9463,-0.9455,-0.9481,-0.9487,-0.9501,-0.9531,-0.9545,-0.9538,-0.9592,-0.9575,-0.9578,-0.9579,-0.9597,-0.9602,-0.9607,-0.9543,-0.9543,-0.9543,0,0,-0.9409,-0.9417,-0.944,-0.945,-0.9463,-0.9467,-0.9472,-0.9485,-0.9489,-0.9515,-0.9509,-0.9526,-0.9556,-0.9567,-0.9576,-0.9615,-0.961,-0.9621,-0.9641,-0.9658,-0.9663,-0.9667,-0.9681,-0.9686,-0.9624,-0.9624,-0.9624,0,-0.9425,-0.9453,-0.9452,-0.9473,-0.9484,-0.9477,-0.95,-0.9509,-0.9528,-0.9535,-0.9527,-0.9565,-0.9574,-0.9606,-0.9616,-0.9624,-0.963,-0.9619,-0.9662,-0.9666,-0.967,-0.9684,-0.9689,-0.9625,-0.9625,-0.9625,-0.9625,0,-0.9472,-0.9491,-0.9508,-0.9526,-0.9538,-0.956,-0.9563,-0.9576,-0.9574,-0.9579,-0.9606,-0.9616,-0.9635,-0.9643,-0.9641,-0.9675,-0.967,-0.9662,-0.9646,-0.9677,-0.969,-0.9695,-0.9627,-0.9627,-0.9626,-0.9626,0,0,-0.9518,-0.9535,-0.9541,-0.955,-0.9565,-0.958,-0.9601,-0.962,-0.963,-0.9643,-0.9662,-0.9688,-0.968,-0.9691,-0.9691,-0.9706,-0.9737,-0.9696,-0.9696,-0.9703,-0.9775,-0.9781,-0.9787,-0.9734,-0.9735,-0.9735,-0.9774,0,-0.9554,-0.9592,-0.9593,-0.9628,-0.9646,-0.9639,-0.9658,-0.967,-0.9674,-0.9691,-0.9696,-0.9714,-0.9703,-0.9709,-0.9724,-0.973,-0.9751,-0.9727,-0.9751,-0.9752,-0.9748,-0.9794,-0.98,-0.9836,-0.9779,-0.978,-0.978,0,-0.9602,-0.9617,-0.9654,-0.9666,-0.9674,-0.9691,-0.9708,-0.9723,-0.9736,-0.9738,-0.975,-0.9747,-0.977,-0.9754,-0.9785,-0.9768,-0.9778,-0.9782,-0.9784,-0.9786,-0.9768,-0.9798,-0.9848,-0.9853,-0.9788,-0.9788,-0.9787,0,-0.9632,-0.9661,-0.9687,-0.9694,-0.9709,-0.9721,-0.9728,-0.974,-0.9751,-0.9766,-0.9773,-0.979,-0.98,-0.9813,-0.9816,-0.9804,-0.9847,-0.9831,-0.985,-0.985,-0.9859,-0.9859,-0.9912,-0.9865,-0.9865,-0.9865,-0.9865,0,-0.9674,-0.9696,-0.9701,-0.9716,-0.9742,-0.9742,-0.9768,-0.9773,-0.9784,-0.9801,-0.9797,-0.9813,-0.9815,-0.9832,-0.9834,-0.9859,-0.9864,-0.9866,-0.9867,-0.9867,-0.9867,-0.9873,-0.9871,-0.9867,-0.9866,-0.9866,-0.9866,0,-0.9712,-0.9715,-0.9743,-0.9755,-0.9758,-0.9776,-0.9787,-0.9802,-0.9806,-0.9828,-0.9833,-0.9839,-0.9859,-0.9863,-0.9886,-0.9887,-0.9918,-0.9915,-0.9913,-0.9913,-0.9932,-0.993,-0.9991,-0.9999,-0.9947,-0.9948,-0.9948,0,-0.9738,-0.9755,-0.9769,-0.978,-0.9787,-0.9805,-0.9816,-0.9817,-0.9829,-0.9845,-0.9859,-0.9877,-0.9893,-0.9924,-0.9931,-0.9949,-0.9947,-0.9967,-0.995,-0.9949,-0.9948,-0.9947,-0.9948,-0.9971,-0.9971,-0.9972,-0.9972,0,-0.9784,-0.9785,-0.9801,-0.9818,-0.9831,-0.9844,-0.9857,-0.9866,-0.9869,-0.9883,-0.9903,-0.9914,-0.9938,-0.9957,-0.9975,-0.9982,-0.9978,-0.9978,-0.9983,-0.9983,-0.9981,-0.9983,-0.9923,-0.9976,-0.9976,-0.9976,-0.9975,-0.9975,-0.9817,-0.9832,-0.9844,-0.9862,-0.9872,-0.9884,-0.9899,-0.9904,-0.9921,-0.994,-0.994,-0.9961,-0.9974,-0.9997,-1.0005,-1.0023,-1.0016,-1.0024,-1.0026,-1.0028,-1.003,-0.9979,-1.0026,-1.0026,-1.0026,-1.0025,-1.0025,0,-0.9863,-0.9871,-0.9887,-0.9905,-0.9919,-0.9914,-0.9927,-0.994,-0.9959,-0.9971,-0.9986,-1.0008,-1.0027,-1.0035,-1.0053,-1.0065,-1.0064,-1.007,-1.0069,-1.0071,-1.0034,-1.0028,-1.0071,-1.0071,-1.0071,-1.0071,-1.0071,-1.0071,-0.9889,-0.9915,-0.9917,-0.9947,-0.9954,-0.9975,-0.9983,-0.9994,-1.0004,-1.0029,-1.0045,-1.005,-1.006,-1.0079,-1.0096,-1.0098,-1.0105,-1.0112,-1.0113,-1.0078,-1.0074,-1.0069,-1.0063,-1.0113,-1.0113,-1.0148,-1.0149,-1.0149]},{"header":{"parameterUnit":"m.s-1","parameterCategory":1,"la1":30.2991,"la2":30.254,"lo1":-89.0895,"lo2":-89.0444,"dy":0.0017,"dx":0.0017,"nx":28,"ny":28,"refTime":"2025-07-27T09:00:00:Z","depth":0,"parameterNumber":3,"parameterNumberName":"V-component_of_WINDS"},"data":[0,0,0,0,0,0,0,0,0,0,0,0,0,0,0,0,0,0,0,0,0,0,0,0,0,0,0,0,0,0,0,0,0,0,0,0,0,0,0,0,0,0,0,0,0,0,0,0,0,0,0,0,0,0,0,0,0,0,3.2124,3.2123,0,3.2075,3.2074,3.2073,3.1968,3.1966,3.1964,3.1962,3.1913,3.1914,3.1914,0,0,0,0,0,0,0,0,0,0,0,0,0,3.2128,3.2128,3.2124,3.2123,3.2122,3.2075,3.2074,3.2073,3.1969,3.1966,3.1963,3.1961,3.1913,3.1914,3.1915,0,0,0,0,0,0,0,0,0,0,0,0,0,3.2107,3.2128,3.2124,3.2064,3.2059,3.2075,3.2074,3.2073,3.1969,3.1966,3.1963,3.196,3.1913,3.1914,3.1915,3.1985,0,0,3.1918,3.1918,0,0,0,0,0,0,0,0,3.2108,3.2107,3.2074,3.2068,3.2062,3.2024,3.2057,3.2044,3.197,3.2003,3.1962,3.1958,3.1953,3.195,3.1948,3.1983,3.1981,3.1918,3.1919,3.1919,3.1919,0,0,0,0,0,0,0,3.211,3.2109,3.2104,3.2073,3.2066,3.204,3.2034,3.2054,3.1997,3.2,3.1992,3.1988,3.1949,3.1947,3.1946,3.198,3.1918,3.1919,3.1919,3.192,3.2068,3.2071,0,0,0,0,0,0,3.212,3.211,3.2106,3.2103,3.2078,3.2043,3.2036,3.204,3.1996,3.1986,3.1991,3.1983,3.1947,3.1945,3.1944,3.2022,3.1919,3.192,3.1921,3.2065,3.2069,3.2073,0,0,0,0,0,0,3.212,3.212,3.2108,3.2104,3.2101,3.2046,3.2051,3.204,3.2038,3.1989,3.1978,3.1999,3.1945,3.1943,3.1975,3.2019,3.192,3.1921,3.2061,3.2066,3.2071,3.218,0,0,0,0,0,0,3.2121,3.2121,3.2147,3.2106,3.2101,3.214,3.2054,3.2042,3.204,3.203,3.1994,3.1985,3.1942,3.1974,3.1976,3.2019,3.1922,3.2057,3.2063,3.2069,3.2172,3.2188,3.2201,0,0,0,0,0,3.2121,3.2181,3.2149,3.2149,3.2133,3.2143,3.214,3.2088,3.2044,3.207,3.2038,3.1987,3.2014,3.1978,3.198,3.2023,3.2054,3.2062,3.2069,3.2165,3.2185,3.2201,0,0,0,0,0,0,3.2229,3.2174,3.2139,3.2186,3.217,3.2125,3.2155,3.2111,3.2107,3.2097,3.2034,3.2027,3.2068,3.2049,3.201,3.2088,3.2026,3.2034,3.2099,3.2117,3.2131,3.2134,3.1923,0,0,0,0,0,3.2259,3.2271,3.2222,3.2269,3.2262,3.2211,3.2213,3.2174,3.2155,3.2148,3.2118,3.2102,3.2106,3.2111,3.2112,3.2169,3.2159,3.22,3.2215,3.2227,3.2234,3.2261,3.2278,3.2097,3.2097,3.2097,0,0,3.2319,3.2291,3.2302,3.229,3.2272,3.2286,3.2205,3.2224,3.2233,3.2151,3.2179,3.2157,3.2134,3.2179,3.2197,3.2164,3.2282,3.2236,3.2247,3.2247,3.227,3.2288,3.2303,3.2102,3.2101,3.2101,0,0,3.2436,3.2417,3.2452,3.2436,3.2411,3.2376,3.2385,3.2347,3.2328,3.2356,3.2294,3.2304,3.2314,3.23,3.2294,3.2406,3.2358,3.2409,3.2485,3.2512,3.2526,3.2538,3.2576,3.2591,3.2416,3.2417,3.2417,0,3.2515,3.2532,3.2476,3.2498,3.2494,3.2419,3.2455,3.2443,3.242,3.2419,3.2382,3.2392,3.2372,3.2411,3.2438,3.2437,3.2444,3.2411,3.2528,3.254,3.2551,3.2586,3.2601,3.2423,3.2422,3.2421,3.2421,0,3.2629,3.2643,3.2675,3.2653,3.2653,3.2682,3.263,3.2637,3.2599,3.2568,3.2596,3.2569,3.2563,3.257,3.2534,3.2604,3.2585,3.254,3.2475,3.2575,3.2607,3.2621,3.2431,3.2429,3.2427,3.2426,0,0,3.2812,3.2759,3.2771,3.276,3.2726,3.2736,3.2761,3.2755,3.2761,3.2748,3.2767,3.2777,3.2735,3.2728,3.269,3.2714,3.2801,3.2665,3.2664,3.269,3.2876,3.2908,3.2925,3.277,3.2773,3.2774,3.2877,0,3.292,3.2959,3.2909,3.2959,3.297,3.29,3.2922,3.2904,3.2876,3.2881,3.285,3.2858,3.2802,3.2797,3.2818,3.2787,3.2838,3.2779,3.2786,3.2787,3.2792,3.2942,3.2977,3.3075,3.2889,3.2891,3.2893,0,3.305,3.3042,3.3093,3.3055,3.3058,3.3079,3.3068,3.3075,3.3053,3.3031,3.3023,3.2977,3.2999,3.2938,3.2966,3.2927,3.2928,3.2913,3.2915,3.2912,3.2845,3.2942,3.3105,3.3119,3.2913,3.2911,3.291,0,3.3176,3.3178,3.3208,3.3201,3.3158,3.3174,3.3157,3.3132,3.3131,3.3123,3.3121,3.3116,3.3112,3.3109,3.3062,3.3022,3.3096,3.3032,3.3078,3.3079,3.3095,3.3094,3.3259,3.3099,3.3099,3.3099,3.3098,0,3.33,3.3334,3.3264,3.3282,3.3318,3.3261,3.3297,3.3273,3.3251,3.3264,3.3204,3.3217,3.3155,3.3161,3.3125,3.3153,3.3153,3.3135,3.3124,3.3139,3.3141,3.3137,3.3129,3.3102,3.3101,3.3101,3.31,0,3.3445,3.34,3.3428,3.3385,3.3375,3.3403,3.3366,3.3382,3.335,3.3367,3.3367,3.3318,3.3322,3.3275,3.3271,3.3246,3.3291,3.327,3.3298,3.3291,3.3338,3.3334,3.3505,3.3524,3.3354,3.3355,3.3357,0,3.3527,3.355,3.351,3.3514,3.3499,3.3507,3.3505,3.345,3.3451,3.3427,3.3445,3.3445,3.3441,3.3451,3.3415,3.3411,3.3388,3.3448,3.3387,3.34,3.3386,3.3385,3.3386,3.346,3.3462,3.3464,3.3466,0,3.3675,3.3651,3.3651,3.3643,3.3643,3.3634,3.3622,3.3628,3.3568,3.3572,3.3576,3.3573,3.3568,3.3568,3.3557,3.3539,3.3492,3.3485,3.3495,3.351,3.3525,3.3515,3.3331,3.3481,3.348,3.3479,3.3478,3.3477,3.3789,3.3807,3.3781,3.3782,3.3767,3.3756,3.3768,3.3738,3.3739,3.373,3.3698,3.3707,3.3684,3.3664,3.3651,3.3656,3.3627,3.3642,3.3646,3.365,3.3658,3.3525,3.3655,3.3654,3.3654,3.3653,3.3653,0,3.3933,3.3913,3.3915,3.3898,3.39,3.3856,3.3839,3.3843,3.3852,3.3834,3.3831,3.3835,3.3834,3.3798,3.3792,3.3804,3.3782,3.3804,3.3802,3.3798,3.3685,3.3676,3.3822,3.3822,3.3822,3.3822,3.3822,3.3822,3.4008,3.4034,3.4008,3.4026,3.4005,3.4013,3.4007,3.3997,3.3982,3.3989,3.3987,3.3964,3.3938,3.393,3.3928,3.3917,3.3917,3.3946,3.3928,3.3823,3.3806,3.3791,3.3782,3.3947,3.3947,3.404,3.4041,3.4041]}]]